Regional Weather Roundup
Issued by NWS

Home | Current Version | Previous Version | Graphics & Text | Print | Product List | Glossary On
Versions: 1 2 3 4 5 6 7 8 9 10 11 12 13 14 15 16 17 18 19 20 21 22 23 24 25 26 27 28 29 30 31 32 33 34 35 36 37 38 39 40 41 42 43 44 45 46 47 48 49 50
000
ASUS43 KLSX 201607
RWRMO

WEATHER SUMMARY FOR MISSOURI
NATIONAL WEATHER SERVICE SPRINGFIELD MO
1000 AM CST SAT DEC 20 2014

NOTE: "FAIR" INDICATES FEW OR NO CLOUDS BELOW 12,000 FEET WITH NO
       SIGNIFICANT WEATHER AND/OR OBSTRUCTIONS TO VISIBILITY.
       CURRENT SKY AND/OR WEATHER CONDITIONS ARE NOT AVAILABLE FOR
       CHILLICOTHE AND FARMINGTON.

MOZ001>031-035>038-043-044-053-054-201700-
...NORTHERN AND WESTERN MISSOURI...

CITY           SKY/WX    TMP DP  RH WIND       PRES   REMARKS
KANSAS CTY INT PTSUNNY   35  32  88 S14       30.17R WCI  26
KANSAS C DTWN  CLOUDY    37  32  82 S9        30.20R
LEE`S SUMMIT   CLOUDY    35  32  88 S12       30.20R WCI  27
ST JOSEPH      CLOUDY    36  32  85 S9        30.17S WCI  29
CHILLICOTHE      N/A     34  33  96 S3        30.23R
KIRKSVILLE     FOG       35  35 100 S8        30.22R VSB<1/4 WCI  29

$$
MOZ066>068-077>081-088>096-101>105-201700-
...SOUTHWEST MISSOURI...

CITY           SKY/WX    TMP DP  RH WIND       PRES   REMARKS
SPRINGFIELD    CLOUDY    39  37  92 SW3       30.23S
JOPLIN         PTSUNNY   39  34  82 CALM      30.25S

$$
MOZ032>034-039>042-045>050-055>058-069>072-201700-
...CENTRAL MISSOURI...

CITY           SKY/WX    TMP DP  RH WIND       PRES   REMARKS
COLUMBIA       CLOUDY    38  36  92 S7        30.23S FOG
JEFFERSON CITY CLOUDY    39  35  86 S3        30.26S
ROLLA          CLOUDY    37  34  89 S7        30.23S
SEDALIA        CLOUDY    38  35  89 SW9       30.23S
WHITEMAN AFB   CLOUDY    36  34  91 SW12      30.22S WCI  28
WARRENSBURG    CLOUDY    36  32  87 S12       30.22S WCI  27
OSAGE BEACH    CLOUDY    39  36  87 S6        30.24F

$$
MOZ051-052-059>065-201700-
...EAST CENTRAL MISSOURI...

CITY           SKY/WX    TMP DP  RH WIND       PRES   REMARKS
ST LOUIS INTL  CLOUDY    38  30  73 S7        30.29S HAZE
SPIRIT OF STL  CLOUDY    38  32  79 CALM      30.28S
ST CHARLES     CLOUDY    37  30  75 S7        30.29R

$$
MOZ072>076-082>087-097>100-106>115-201700-
...SOUTH CENTRAL AND SOUTHEAST MISSOURI...

CITY           SKY/WX    TMP DP  RH WIND       PRES   REMARKS
CAPE GIRARDEAU CLOUDY    38  30  73 NE3       30.30S
FARMINGTON     CLOUDY    36  32  87 CALM      30.27F
POPLAR BLUFF   CLOUDY    39  31  72 E5        30.30R
WEST PLAINS    CLOUDY    36  33  89 CALM      30.26R

$$


USA.gov is the U.S. government's official web portal to all federal, state and local government web resources and services.